sat.trackr.live / text

‹ back to catalog

STARLINK-6347

NORAD 57359 · 2023-099AH

PAYLOAD ACTIVE UNKNOWN

§ Identity

Operator
Country
US
Launch date
2023-07-16
Launch site
AFETR
Launch vehicle
Mass (kg)
RCS (m²)

Purposes: comms

External: N2YO · Heavens-Above · Gunter

§ Orbital elements

Epoch: 2026-09-20T13:53:05.801568Z

Period
94.27 min
Inclination
43.0015°
Eccentricity
0.0000924
Mean motion
15.27577557 rev/d
Perigee alt
482.4 km
Apogee alt
483.7 km
Semi-major
6,861.2 km
B*
1.5876e-5
RAAN
221.1717°
Arg perigee
247.1482°
Mean anomaly
112.9272°
Rev number
17,600

§ Raw data

STARLINK-63471 57359U 23099AH  26263.57853937  .00000175  00000+0  15876-4 0  99912 57359  43.0015 221.1717 0000924 247.1482 112.9272 15.27577557176007

JSON: /api/v1/satellites/57359 · /tle

For live sub-satellite position, see the globe view (requires WebGL).

§ Visibility from observer

Set your observer location to see the next 7 days of passes ≥ 10°. The values pass through the URL so the page stays shareable.

No JS? Fill the form by hand. The geolocation button needs JavaScript.